Prague, Czech Republic

10:46 PM CEST on June 24, 2017 (GMT +0200)
Ruzyne

Weather History for LKPR - January, 2013

Change the Weather History Date:

Wednesday, January 9, 2013

  Actual Average Record
Temperature  
Mean Temperature 40 °F -  
Max Temperature 41 °F 34 °F 53 °F (2007)
Min Temperature 39 °F 23 °F 8 °F (2003)
Degree Days  
Heating Degree Days 25    
Moisture  
Dew Point 38 °F    
Average Humidity 92    
Maximum Humidity 100    
Minimum Humidity 81    
Precipitation  
Precipitation 0.03 in 0.03 in - ()
Sea Level Pressure  
Sea Level Pressure 30.06 in    
Wind  
Wind Speed 10 mph ()    
Max Wind Speed 17 mph    
Max Gust Speed -    
Visibility 6.5 miles    
Events Rain    
Averages and records for this station are not official NWS values.
T = Trace of Precipitation, MM = Missing Value Source: Averaged Metar Reports

Daily Weather History Graph

Daily Weather History Graph

Search for Another Location

Airport or City:

Trip Planner

Search our weather history database for the weather conditions in past years. The results will help you decide how hot, cold, wet, or windy it might be!

Date:

Astronomy

Jan. 09, 2013 Rise Set
Actual Time 7:59 AM CET 4:20 PM CET
Civil Twilight 7:21 AM CET 4:58 PM CET
Nautical Twilight 6:41 AM CET 5:39 PM CET
Astronomical Twilight 6:01 AM CET 6:18 PM CET
Moon 5:20 AM CET (1/9) 2:03 PM CET (1/9)
Length of Visible Light 9h 36m
Length of Day
8h 21m
Waning Crescent, 8% of the Moon is Illuminated
Jan 9
Waning Crescent
Jan 11
New
Jan 19
First Quarter
Jan 27
Full
Feb 3
Last Quarter

Hourly Weather History & Observations

Time (CET) Temp. Windchill Dew Point Humidity Pressure Visibility Wind Dir Wind Speed Gust Speed Precip Events Conditions
12:00 AM 39.2 °F 32.5 °F 37.4 °F 93% 30.15 in 6.2 mi WSW 10.4 mph - N/A   Overcast
12:30 AM 39.2 °F 32.5 °F 37.4 °F 93% 30.15 in 6.2 mi WSW 10.4 mph - N/A   Overcast
1:00 AM 40 °F - 38 °F 89% 30.22 in 12 mi West 11.2 mph - -   Overcast
1:00 AM 39.2 °F 32.0 °F 37.4 °F 93% 30.15 in 6.2 mi WSW 11.5 mph - N/A   Overcast
1:30 AM 39.2 °F 32.0 °F 37.4 °F 93% 30.15 in 6.2 mi WSW 11.5 mph - N/A   Overcast
2:00 AM 39.2 °F 32.0 °F 37.4 °F 93% 30.15 in 6.2 mi WSW 11.5 mph - N/A   Mostly Cloudy
2:30 AM 39.2 °F 33.0 °F 37.4 °F 93% 30.15 in 6.2 mi WSW 9.2 mph - N/A   Mostly Cloudy
3:00 AM 39.2 °F 33.6 °F 37.4 °F 93% 30.15 in 6.2 mi WSW 8.1 mph - N/A   Mostly Cloudy
3:30 AM 39.2 °F 33.0 °F 37.4 °F 93% 30.15 in 6.2 mi WSW 9.2 mph - N/A   Overcast
4:00 AM 39.2 °F 33.0 °F 37.4 °F 93% 30.15 in 6.2 mi WSW 9.2 mph - N/A   Overcast
4:30 AM 39.2 °F 32.5 °F 37.4 °F 93% 30.15 in 6.2 mi WSW 10.4 mph - N/A   Overcast
5:00 AM 39.2 °F 33.0 °F 37.4 °F 93% 30.15 in 6.2 mi WSW 9.2 mph - N/A   Overcast
5:30 AM 39.2 °F 33.0 °F 37.4 °F 93% 30.15 in 6.2 mi WSW 9.2 mph - N/A   Overcast
6:00 AM 39.2 °F 32.0 °F 37.4 °F 93% 30.15 in 6.2 mi WSW 11.5 mph - N/A   Overcast
6:30 AM 39.2 °F 32.5 °F 37.4 °F 93% 30.15 in 6.2 mi SW 10.4 mph - N/A   Overcast
7:00 AM 39 °F - 37 °F 90% 30.20 in 12 mi WSW 8.9 mph - -   Overcast
7:00 AM 39.2 °F 33.0 °F 37.4 °F 93% 30.15 in 6.2 mi WSW 9.2 mph - N/A   Overcast
7:30 AM 39.2 °F 33.0 °F 37.4 °F 93% 30.15 in 6.2 mi SW 9.2 mph - N/A   Overcast
8:00 AM 39.2 °F 33.0 °F 37.4 °F 93% 30.15 in 6.2 mi SW 9.2 mph - N/A   Overcast
8:30 AM 39.2 °F 33.0 °F 37.4 °F 93% 30.15 in 6.2 mi SW 9.2 mph - N/A   Overcast
9:00 AM 39.2 °F 33.6 °F 37.4 °F 93% 30.15 in 6.2 mi SSW 8.1 mph - N/A   Overcast
9:30 AM 39.2 °F 33.0 °F 37.4 °F 93% 30.15 in 6.2 mi SW 9.2 mph - N/A   Overcast
10:00 AM 39.2 °F 32.5 °F 37.4 °F 93% 30.15 in 6.2 mi SW 10.4 mph - N/A   Overcast
10:30 AM 41.0 °F 35.2 °F 37.4 °F 87% 30.15 in 6.2 mi SW 9.2 mph - N/A   Overcast
11:00 AM 41.0 °F 34.7 °F 39.2 °F 93% 30.12 in 6.2 mi SW 10.4 mph - N/A   Overcast
11:30 AM 41.0 °F 34.7 °F 39.2 °F 93% 30.12 in 6.2 mi SW 10.4 mph - N/A   Overcast
12:00 PM 41.0 °F 34.3 °F 39.2 °F 93% 30.12 in 6.2 mi SW 11.5 mph - N/A   Mostly Cloudy
12:30 PM 41.0 °F 35.8 °F 39.2 °F 93% 30.09 in 6.2 mi SSW 8.1 mph - N/A   Overcast
1:00 PM 41 °F - 39 °F 91% 30.13 in 12 mi SSW 8.9 mph - -   Overcast
1:00 PM 41.0 °F 35.8 °F 39.2 °F 93% 30.06 in 6.2 mi SSW 8.1 mph - N/A   Overcast
1:05 PM 41.0 °F 35.8 °F 39.2 °F 93% 30.06 in 6.2 mi SSW 8.1 mph - N/A Rain Light Rain
1:30 PM 41.0 °F 34.7 °F 39.2 °F 93% 30.06 in 6.2 mi SW 10.4 mph - N/A   Overcast
2:00 PM 41.0 °F 34.7 °F 39.2 °F 93% 30.06 in 6.2 mi SSW 10.4 mph - N/A   Overcast
2:30 PM 41.0 °F 34.3 °F 39.2 °F 93% 30.04 in 6.2 mi SSW 11.5 mph - N/A   Overcast
3:00 PM 41.0 °F 34.7 °F 39.2 °F 93% 30.04 in 6.2 mi SSW 10.4 mph - N/A   Overcast
3:22 PM 41.0 °F 34.3 °F 39.2 °F 93% 30.04 in 6.2 mi SW 11.5 mph - N/A   Overcast
3:30 PM 41.0 °F 34.3 °F 39.2 °F 93% 30.04 in 6.2 mi SW 11.5 mph - N/A   Overcast
4:00 PM 41.0 °F 34.3 °F 37.4 °F 87% 30.04 in 6.2 mi SW 11.5 mph - N/A   Overcast
4:30 PM 39.2 °F 32.5 °F 37.4 °F 93% 30.01 in 6.2 mi SSW 10.4 mph - N/A   Overcast
4:40 PM 39.2 °F 33.0 °F 37.4 °F 93% 30.01 in 6.2 mi SSW 9.2 mph - N/A   Overcast
4:49 PM 39.2 °F 33.0 °F 39.2 °F 100% 30.01 in 6.2 mi SSW 9.2 mph - N/A   Light Drizzle
5:00 PM 39.2 °F 32.0 °F 37.4 °F 93% 30.01 in 4.3 mi SSW 11.5 mph - N/A   Light Drizzle
5:30 PM 39.2 °F 33.6 °F 39.2 °F 100% 30.01 in 6.2 mi SSW 8.1 mph - N/A   Overcast
5:40 PM 39.2 °F 33.6 °F 39.2 °F 100% 30.01 in 6.2 mi SSW 8.1 mph - N/A   Overcast
6:00 PM 39.2 °F 33.0 °F 39.2 °F 100% 29.98 in 6.2 mi SSW 9.2 mph - N/A   Overcast
6:30 PM 39.2 °F 33.6 °F 37.4 °F 93% 29.98 in 6.2 mi SW 8.1 mph - N/A   Light Drizzle
7:00 PM 39.2 °F 33.6 °F 37.4 °F 93% 29.98 in 6.2 mi SSW 8.1 mph - N/A   Overcast
7:30 PM 39.2 °F 33.0 °F 37.4 °F 93% 29.95 in 6.2 mi SSW 9.2 mph - N/A   Overcast
7:47 PM 39.2 °F 32.5 °F 37.4 °F 93% 29.95 in 6.2 mi SW 10.4 mph - N/A Rain Light Rain
8:00 PM 39.2 °F 32.5 °F 37.4 °F 93% 29.95 in 6.2 mi SW 10.4 mph - N/A Rain Light Rain
8:30 PM 39.2 °F 31.6 °F 35.6 °F 87% 29.92 in 6.2 mi SW 12.7 mph - N/A   Overcast
9:00 PM 39.2 °F 31.6 °F 35.6 °F 87% 29.92 in 6.2 mi SW 12.7 mph - N/A   Overcast
9:30 PM 39.2 °F 32.0 °F 35.6 °F 87% 29.92 in 6.2 mi SW 11.5 mph - N/A   Overcast
10:00 PM 39.2 °F 31.2 °F 35.6 °F 87% 29.89 in 6.2 mi WSW 13.8 mph - N/A   Overcast
10:19 PM 39.2 °F 30.8 °F 35.6 °F 87% 29.89 in 6.2 mi WSW 15.0 mph - N/A Rain Light Rain
10:30 PM 39.2 °F 31.2 °F 35.6 °F 87% 29.89 in 6.2 mi SW 13.8 mph - N/A Rain Light Rain
11:00 PM 39.2 °F 30.5 °F 35.6 °F 87% 29.86 in 6.2 mi WSW 16.1 mph - N/A Rain Light Rain
11:30 PM 39.2 °F 30.2 °F 33.8 °F 81% 29.86 in 6.2 mi WSW 17.3 mph - N/A   Overcast